Salem, OR

4:56 PM PDT on April 29, 2017 (GMT -0700)
McNary

Weather History for KSLE - November, 2010

Change the Weather History Date:

Saturday, November 20, 2010

  Actual Average Record
Temperature  
Mean Temperature 41 °F 44 °F  
Max Temperature 47 °F 51 °F 65 °F (1910)
Min Temperature 34 °F 38 °F 15 °F (1977)
Degree Days  
Heating Degree Days 24 20  
Month to date heating degree days 305 366  
Since 1 July heating degree days 771 898  
Cooling Degree Days 0 0  
Month to date cooling degree days 0 0  
Year to date cooling degree days 291 290  
Moisture  
Dew Point 37 °F    
Average Humidity 82    
Maximum Humidity 92    
Minimum Humidity 71    
Precipitation  
Precipitation 0.23 in 0.24 in 2.30 in (1921)
Month to date precipitation 4.13 4.08  
Year to date precipitation 37.18 30.39  
Snow  
Snow 0.00 in - - ()
Month to date snowfall 0.0  
Snow Depth 0.00 in    
Sea Level Pressure  
Sea Level Pressure 29.64 in    
Wind  
Wind Speed 7 mph (SSE)    
Max Wind Speed 20 mph    
Max Gust Speed 24 mph    
Visibility 10 miles    
Events Rain    
T = Trace of Precipitation, MM = Missing Value Source: NWS Daily Summary

Daily Weather History Graph

Daily Weather History Graph

Search for Another Location

Airport or City:

Trip Planner

Search our weather history database for the weather conditions in past years. The results will help you decide how hot, cold, wet, or windy it might be!

Date:

Astronomy

Nov. 20, 2010 Rise Set
Actual Time 7:16 AM PST 4:38 PM PST
Civil Twilight 6:44 AM PST 5:10 PM PST
Nautical Twilight 6:08 AM PST 5:46 PM PST
Astronomical Twilight 5:33 AM PST 6:21 PM PST
Moon 3:47 PM PST (11/20) 6:22 AM PST (11/20)
Length of Visible Light 10h 26m
Length of Day
9h 22m
Waxing Gibbous, 99% of the Moon is Illuminated
Nov 20
Waxing Gibbous
Nov 21
Full
Nov 28
Last Quarter
Dec 5
New
Dec 13
First Quarter

Hourly Weather History & Observations

Time (PST) Temp. Windchill Dew Point Humidity Pressure Visibility Wind Dir Wind Speed Gust Speed Precip Events Conditions
12:17 AM 41.0 °F 34.3 °F 37.4 °F 87% 29.66 in 7.0 mi South 11.5 mph 17.3 mph 0.01 in Rain Light Rain
12:56 AM 39.0 °F 33.4 °F 36.0 °F 89% 29.66 in 6.0 mi South 8.1 mph - 0.10 in Rain Rain
1:17 AM 39.2 °F 32.0 °F 35.6 °F 87% 29.65 in 9.0 mi South 11.5 mph - 0.02 in Rain Light Rain
1:26 AM 39.2 °F 33.0 °F 37.4 °F 93% 29.64 in 8.0 mi SSE 9.2 mph - 0.03 in Rain Light Rain
1:56 AM 39.9 °F 33.9 °F 37.0 °F 89% 29.64 in 10.0 mi SSE 9.2 mph - 0.04 in   Overcast
2:56 AM 39.9 °F 32.5 °F 37.0 °F 89% 29.62 in 10.0 mi SSE 12.7 mph - 0.00 in Rain Light Rain
3:08 AM 39.2 °F 32.5 °F 37.4 °F 93% 29.62 in 10.0 mi SSE 10.4 mph - 0.00 in Rain Light Rain
3:26 AM 39.2 °F 34.2 °F 37.4 °F 93% 29.62 in 8.0 mi South 6.9 mph - 0.02 in Rain Light Rain
3:56 AM 39.9 °F 33.9 °F 37.0 °F 89% 29.62 in 10.0 mi South 9.2 mph - 0.05 in Rain Light Rain
4:54 AM 39.2 °F 32.5 °F 37.4 °F 93% 29.61 in 10.0 mi South 10.4 mph - 0.01 in Rain Light Rain
4:56 AM 39.9 °F 34.5 °F 37.0 °F 89% 29.61 in 10.0 mi South 8.1 mph - 0.01 in Rain Light Rain
5:23 AM 39.2 °F 33.6 °F 37.4 °F 93% 29.60 in 10.0 mi South 8.1 mph - 0.01 in Rain Light Rain
5:56 AM 39.9 °F 35.8 °F 37.9 °F 93% 29.61 in 8.0 mi South 5.8 mph - 0.02 in Rain Light Rain
6:07 AM 39.2 °F 34.2 °F 37.4 °F 93% 29.60 in 10.0 mi South 6.9 mph - 0.01 in Rain Light Rain
6:56 AM 39.9 °F 33.4 °F 37.0 °F 89% 29.60 in 10.0 mi SSE 10.4 mph - 0.01 in   Overcast
7:47 AM 39.2 °F 35.9 °F 37.4 °F 93% 29.61 in 10.0 mi SE 4.6 mph - 0.00 in   Overcast
7:56 AM 39.9 °F 35.8 °F 37.9 °F 93% 29.62 in 10.0 mi SE 5.8 mph - 0.00 in   Mostly Cloudy
8:56 AM 41.0 °F - 37.9 °F 89% 29.63 in 10.0 mi Calm Calm - 0.00 in   Overcast
9:56 AM 42.1 °F 40.2 °F 39.0 °F 89% 29.64 in 10.0 mi NNE 3.5 mph - N/A   Overcast
10:56 AM 43.0 °F - 37.9 °F 82% 29.65 in 10.0 mi Calm Calm - N/A   Overcast
12:56 PM 46.0 °F 43.9 °F 39.0 °F 76% 29.63 in 10.0 mi NNE 4.6 mph - N/A   Mostly Cloudy
1:56 PM 46.0 °F 41.4 °F 39.0 °F 76% 29.64 in 10.0 mi North 9.2 mph - N/A   Mostly Cloudy
2:56 PM 46.9 °F - 37.9 °F 71% 29.64 in 10.0 mi North 9.2 mph - N/A   Partly Cloudy
3:56 PM 45.0 °F 40.1 °F 37.9 °F 76% 29.65 in 10.0 mi North 9.2 mph - N/A   Scattered Clouds
4:56 PM 42.1 °F 38.4 °F 37.0 °F 82% 29.65 in 10.0 mi North 5.8 mph - N/A   Clear
5:56 PM 37.9 °F 32.7 °F 36.0 °F 93% 29.65 in 10.0 mi NNW 6.9 mph - N/A   Partly Cloudy
6:56 PM 37.0 °F 32.4 °F 36.0 °F 96% 29.66 in 10.0 mi NNW 5.8 mph - N/A   Overcast
7:56 PM 37.0 °F 32.4 °F 36.0 °F 96% 29.66 in 10.0 mi NNW 5.8 mph - N/A   Overcast
8:56 PM 37.0 °F 32.4 °F 35.1 °F 93% 29.66 in 10.0 mi NNW 5.8 mph - N/A   Overcast
9:56 PM 37.0 °F 34.5 °F 35.1 °F 93% 29.67 in 10.0 mi NNW 3.5 mph - N/A   Clear
10:56 PM 35.1 °F 30.1 °F 33.1 °F 92% 29.68 in 10.0 mi NW 5.8 mph - N/A   Clear
11:56 PM 34.0 °F 28.8 °F 33.1 °F 96% 29.69 in 10.0 mi NNW 5.8 mph - N/A   Clear